View from above orbital plane
|
View from above satellite
|
Ground track
|
The orbit data is extracted from the following two-line orbital elements,
1 25544U 98067A 21110.55099619 .00002265 00000-0 49391-4 0 9994
2 25544 51.6451 267.8023 0002515 253.6108 186.8236 15.48910994279664
Epoch (UTC): | 20 April 2021 13:13:26 |
Eccentricity: | 0.0002515 |
inclination: | 51.6451° |
perigee height: | 418 km |
apogee height: | 421 km |
right ascension of ascending node: | 267.8023° |
argument of perigee: | 253.6108° |
revolutions per day: | 15.48910994 |
mean anomaly at epoch: | 186.8236° |
orbit number at epoch: | 27966 |
The dashed part of the orbit path shows where the satellite is in the earth's shadow,
|
|